Weather History for Grand Marais Airport, MN

Change the Weather History Date:

Tuesday, July 2, 2013

  Actual Average Record
Temperature  
Mean Temperature 52 °F -  
Max Temperature 68 °F 68 °F 120 °F (1997)
Min Temperature 35 °F 48 °F 35 °F (2013)
Degree Days  
Heating Degree Days 14    
Growing Degree Days 2 (Base 50)    
Moisture  
Dew Point 36 °F    
Average Humidity 54    
Maximum Humidity 87    
Minimum Humidity 28    
Precipitation  
Precipitation 0.00 in - - ()
Sea Level Pressure  
Sea Level Pressure 30.20 in    
Wind  
Wind Speed 3 mph (East)    
Max Wind Speed 8 mph    
Max Gust Speed -    
Visibility 10 miles    
Events      
Averages and records for this station are not official NWS values.
T = Trace of Precipitation, MM = Missing Value Source: NWS Daily Summary

Daily Weather History Graph

Daily Weather History Graph

Search for Another Location

Airport:

Trip Planner

Search our weather history database for the weather conditions in past years. The results will help you decide how hot, cold, wet, or windy it might be!

Date:

Astronomy

Jul. 02, 2013 Rise Set
Actual Time 5:07 AM CDT 9:03 PM CDT
Civil Twilight 4:26 AM CDT 9:43 PM CDT
Nautical Twilight 3:30 AM CDT 10:39 PM CDT
Astronomical Twilight 2:02 AM CDT 12:07 AM CDT
Moon 1:23 AM CDT (7/2) 4:06 PM CDT (7/2)
Length of Visible Light 17h 16m
Length of Day
15h 55m
Waning Crescent, 26% of the Moon is Illuminated
Jul 2
Waning Crescent
Jul 8
New
Jul 15
First Quarter
Jul 22
Full
Jul 29
Last Quarter

Hourly Weather History & Observations

Time (CDT) Temp. Windchill Dew Point Humidity Pressure Visibility Wind Dir Wind Speed Gust Speed Precip Events Conditions
12:14 AM 42.8 °F - 35.6 °F 76% 30.24 in 10.0 mi Calm Calm - N/A   Clear
12:34 AM 42.8 °F - 35.6 °F 76% 30.24 in 10.0 mi Calm Calm - N/A   Clear
12:53 AM 39.2 °F - 35.6 °F 87% 30.24 in 10.0 mi Calm Calm - N/A   Clear
1:14 AM 39.2 °F - 35.6 °F 87% 30.24 in 10.0 mi Calm Calm - N/A   Clear
1:34 AM 39.2 °F 35.9 °F 35.6 °F 87% 30.24 in 10.0 mi NNW 4.6 mph - N/A   Clear
1:54 AM 39.2 °F 35.9 °F 35.6 °F 87% 30.23 in 10.0 mi North 4.6 mph - N/A   Clear
2:13 AM 39.2 °F 37.0 °F 35.6 °F 87% 30.23 in 10.0 mi North 3.5 mph - N/A   Clear
2:34 AM 39.2 °F 37.0 °F 35.6 °F 87% 30.23 in 10.0 mi North 3.5 mph - N/A   Clear
2:54 AM 39.2 °F - 35.6 °F 87% 30.23 in 10.0 mi Calm Calm - N/A   Clear
3:13 AM 39.2 °F 37.0 °F 33.8 °F 81% 30.23 in 10.0 mi North 3.5 mph - N/A   Clear
3:33 AM 37.4 °F 33.8 °F 33.8 °F 87% 30.23 in 10.0 mi North 4.6 mph - N/A   Clear
3:54 AM 39.2 °F 37.0 °F 33.8 °F 81% 30.23 in 10.0 mi North 3.5 mph - N/A   Clear
4:13 AM 37.4 °F 34.9 °F 33.8 °F 87% 30.23 in 10.0 mi NNW 3.5 mph - N/A   Clear
4:33 AM 37.4 °F 33.8 °F 33.8 °F 87% 30.23 in 10.0 mi NNW 4.6 mph - N/A   Clear
4:54 AM 37.4 °F 34.9 °F 33.8 °F 87% 30.23 in 10.0 mi North 3.5 mph - N/A   Clear
5:13 AM 35.6 °F 31.7 °F 32.0 °F 87% 30.23 in 10.0 mi North 4.6 mph - N/A   Clear
5:34 AM 35.6 °F 32.8 °F 30.2 °F 81% 30.23 in 10.0 mi North 3.5 mph - N/A   Clear
5:53 AM 39.2 °F 37.0 °F 33.8 °F 81% 30.23 in 10.0 mi North 3.5 mph - N/A   Clear
6:14 AM 41.0 °F 39.0 °F 35.6 °F 81% 30.23 in 10.0 mi North 3.5 mph - N/A   Clear
6:34 AM 44.6 °F 43.1 °F 37.4 °F 76% 30.23 in 10.0 mi North 3.5 mph - N/A   Clear
6:53 AM 46.4 °F - 37.4 °F 71% 30.23 in 10.0 mi Calm Calm - N/A   Clear
7:14 AM 51.8 °F - 37.4 °F 58% 30.23 in 10.0 mi North 3.5 mph - N/A   Clear
7:33 AM 55.4 °F - 35.6 °F 47% 30.23 in 10.0 mi Calm Calm - N/A   Clear
7:54 AM 57.2 °F - 37.4 °F 48% 30.23 in 10.0 mi Calm Calm - N/A   Clear
8:14 AM 60.8 °F - 33.8 °F 36% 30.23 in 10.0 mi Calm Calm - N/A   Clear
8:33 AM 60.8 °F - 33.8 °F 36% 30.23 in 10.0 mi Calm Calm - N/A   Clear
8:54 AM 60.8 °F - 32.0 °F 34% 30.24 in 10.0 mi Calm Calm - N/A   Clear
9:13 AM 62.6 °F - 33.8 °F 34% 30.23 in 10.0 mi SE 3.5 mph - N/A   Clear
9:34 AM 62.6 °F - 32.0 °F 32% 30.23 in 10.0 mi ESE 3.5 mph - N/A   Clear
9:53 AM 64.4 °F - 33.8 °F 32% 30.23 in 10.0 mi Calm Calm - N/A   Clear
10:14 AM 64.4 °F - 30.2 °F 28% 30.22 in 10.0 mi Calm Calm - N/A   Clear
10:34 AM 66.2 °F - 33.8 °F 30% 30.22 in 10.0 mi SE 5.8 mph - N/A   Clear
10:53 AM 66.2 °F - 39.2 °F 37% 30.22 in 10.0 mi SE 5.8 mph - N/A   Clear
11:14 AM 66.2 °F - 35.6 °F 32% 30.22 in 10.0 mi East 4.6 mph - N/A   Clear
11:33 AM 66.2 °F - 35.6 °F 32% 30.22 in 10.0 mi SSE 4.6 mph - N/A   Clear
11:53 AM 66.2 °F - 33.8 °F 30% 30.22 in 10.0 mi SE 5.8 mph - N/A   Clear
12:14 PM 66.2 °F - 35.6 °F 32% 30.22 in 10.0 mi ESE 4.6 mph - N/A   Clear
12:33 PM 66.2 °F - 33.8 °F 30% 30.22 in 10.0 mi ESE 5.8 mph - N/A   Clear
12:53 PM 66.2 °F - 35.6 °F 32% 30.21 in 10.0 mi SE 6.9 mph - N/A   Clear
1:14 PM 66.2 °F - 33.8 °F 30% 30.21 in 10.0 mi ESE 6.9 mph - N/A   Clear
1:33 PM 68.0 °F - 37.4 °F 33% 30.21 in 10.0 mi SSE 4.6 mph - N/A   Clear
1:54 PM 66.2 °F - 33.8 °F 30% 30.20 in 10.0 mi SE 8.1 mph - N/A   Clear
2:14 PM 66.2 °F - 35.6 °F 32% 30.20 in 10.0 mi ESE 8.1 mph - N/A   Clear
2:33 PM 66.2 °F - 37.4 °F 35% 30.19 in 10.0 mi SSE 5.8 mph - N/A   Clear
2:54 PM 68.0 °F - 35.6 °F 30% 30.19 in 10.0 mi SE 8.1 mph - N/A   Clear
3:13 PM 66.2 °F - 35.6 °F 32% 30.19 in 10.0 mi SE 4.6 mph - N/A   Clear
3:34 PM 66.2 °F - 35.6 °F 32% 30.19 in 10.0 mi SE 5.8 mph - N/A   Clear
3:54 PM 66.2 °F - 35.6 °F 32% 30.19 in 10.0 mi SE 5.8 mph - N/A   Clear
4:13 PM 66.2 °F - 37.4 °F 35% 30.18 in 10.0 mi ESE 5.8 mph - N/A   Clear
4:34 PM 66.2 °F - 33.8 °F 30% 30.17 in 10.0 mi SE 5.8 mph - N/A   Clear
4:54 PM 66.2 °F - 35.6 °F 32% 30.17 in 10.0 mi SSE 4.6 mph - N/A   Clear
5:13 PM 66.2 °F - 35.6 °F 32% 30.17 in 10.0 mi SSE 4.6 mph - N/A   Clear
5:34 PM 64.4 °F - 33.8 °F 32% 30.17 in 10.0 mi SSE 3.5 mph - N/A   Clear
5:54 PM 64.4 °F - 35.6 °F 34% 30.16 in 10.0 mi South 5.8 mph - N/A   Clear
6:13 PM 64.4 °F - 33.8 °F 32% 30.16 in 10.0 mi SSE 3.5 mph - N/A   Clear
6:34 PM 64.4 °F - 33.8 °F 32% 30.16 in 10.0 mi ESE 3.5 mph - N/A   Clear
6:53 PM 64.4 °F - 35.6 °F 34% 30.16 in 10.0 mi SE 3.5 mph - N/A   Clear
7:13 PM 64.4 °F - 33.8 °F 32% 30.15 in 10.0 mi East 3.5 mph - N/A   Clear
7:34 PM 62.6 °F - 35.6 °F 37% 30.15 in 10.0 mi Calm Calm - N/A   Clear
7:53 PM 60.8 °F - 35.6 °F 39% 30.15 in 10.0 mi Calm Calm - N/A   Clear
8:14 PM 57.2 °F - 39.2 °F 51% 30.15 in 10.0 mi Calm Calm - N/A   Clear
8:34 PM 55.4 °F - 39.2 °F 54% 30.15 in 10.0 mi Calm Calm - N/A   Clear
8:54 PM 55.4 °F - 39.2 °F 54% 30.14 in 10.0 mi SE 3.5 mph - N/A   Clear
9:13 PM 51.8 °F - 39.2 °F 62% 30.14 in 10.0 mi Calm Calm - N/A   Clear
9:34 PM 51.8 °F - 41.0 °F 67% 30.15 in 10.0 mi Calm Calm - N/A   Clear
9:54 PM 48.2 °F - 41.0 °F 76% 30.15 in 10.0 mi Calm Calm - N/A   Clear
10:13 PM 48.2 °F - 39.2 °F 71% 30.15 in 10.0 mi Calm Calm - N/A   Clear
10:34 PM 46.4 °F - 41.0 °F 81% 30.15 in 10.0 mi Calm Calm - N/A   Clear
10:54 PM 46.4 °F - 39.2 °F 76% 30.15 in 10.0 mi Calm Calm - N/A   Clear
11:13 PM 46.4 °F - 39.2 °F 76% 30.14 in 10.0 mi Calm Calm - N/A   Clear
11:34 PM 44.6 °F - 37.4 °F 76% 30.14 in 10.0 mi Calm Calm - N/A   Clear
11:53 PM 44.6 °F - 37.4 °F 76% 30.14 in 10.0 mi Calm Calm - N/A   Clear